Location: Camaret
(48.2753°N, 4.5961°W)
Time: 04:21:06
(UTC+00:00)

SeaSat 1 - Pass Details

Date: 29 October 2020
Orbit: 744 x 747 km, 108.0° (Epoch: 01 December)

Event Time Altitude Azimuth Distance (km) Brightness Sun altitude
Exits shadow 18:00:36 13° 75° (ENE) 2,073 4.1 -10.0°
Maximum altitude 18:03:09 19° 40° (NE) 1,758 3.9 -10.4°
Drops below altitude 10° 18:06:28 10° 357° (N) 2,275 4.9 -11.0°
Sets 18:09:21 0° 340° (NNW) 3,203 5.9 -11.4°
